TimeEST,TemperatureF,Dew PointF,Humidity,Sea Level PressureIn,VisibilityMPH,Wind Direction,Wind SpeedMPH,Gust SpeedMPH,PrecipitationIn,Events,Conditions,WindDirDegrees,DateUTC
12:54 AM,23.0,14.0,68,30.34,10.0,SW,9.2,-,N/A,,Clear,220,2013-01-08 05:54:00
1:54 AM,26.1,15.1,63,30.33,10.0,SW,13.8,-,N/A,,Clear,230,2013-01-08 06:54:00
2:54 AM,26.1,16.0,66,30.33,10.0,SW,16.1,-,N/A,,Clear,230,2013-01-08 07:54:00
3:54 AM,28.0,19.9,72,30.31,10.0,SW,17.3,-,N/A,,Clear,230,2013-01-08 08:54:00
4:54 AM,28.0,21.0,75,30.30,10.0,SW,15.0,-,N/A,,Clear,230,2013-01-08 09:54:00
5:54 AM,28.9,21.9,75,30.29,10.0,SW,15.0,25.3,N/A,,Clear,230,2013-01-08 10:54:00
6:54 AM,30.9,21.9,69,30.30,10.0,SW,23.0,-,N/A,,Clear,230,2013-01-08 11:54:00
7:54 AM,32.0,21.9,66,30.32,10.0,SW,23.0,28.8,N/A,,Clear,230,2013-01-08 12:54:00
8:54 AM,34.0,23.0,64,30.33,10.0,WSW,20.7,33.4,N/A,,Clear,240,2013-01-08 13:54:00
9:54 AM,36.0,24.1,62,30.34,10.0,SW,21.9,34.5,N/A,,Clear,230,2013-01-08 14:54:00
10:54 AM,37.0,24.1,59,30.32,10.0,WSW,21.9,29.9,N/A,,Clear,240,2013-01-08 15:54:00
11:54 AM,37.9,24.1,57,30.30,10.0,WSW,21.9,27.6,N/A,,Clear,240,2013-01-08 16:54:00
12:54 PM,39.9,25.0,55,30.28,10.0,SW,19.6,24.2,N/A,,Clear,220,2013-01-08 17:54:00
1:54 PM,41.0,24.1,51,30.28,10.0,WSW,13.8,-,N/A,,Clear,240,2013-01-08 18:54:00
2:54 PM,42.1,24.1,49,30.30,10.0,WSW,10.4,-,N/A,,Clear,250,2013-01-08 19:54:00
3:54 PM,39.9,25.0,55,30.30,10.0,WSW,11.5,-,N/A,,Clear,250,2013-01-08 20:54:00
4:54 PM,37.9,25.0,60,30.31,10.0,WSW,8.1,-,N/A,,Clear,240,2013-01-08 21:54:00
5:54 PM,36.0,25.0,64,30.32,10.0,WSW,9.2,-,N/A,,Clear,240,2013-01-08 22:54:00
6:54 PM,34.0,25.0,70,30.33,10.0,SW,9.2,-,N/A,,Clear,230,2013-01-08 23:54:00
7:54 PM,35.1,24.1,64,30.36,10.0,WSW,6.9,-,N/A,,Clear,250,2013-01-09 00:54:00
8:54 PM,35.1,24.1,64,30.36,10.0,West,9.2,-,N/A,,Clear,260,2013-01-09 01:54:00
9:54 PM,34.0,24.1,67,30.36,10.0,WSW,9.2,-,N/A,,Clear,250,2013-01-09 02:54:00
10:54 PM,34.0,24.1,67,30.35,10.0,West,11.5,-,N/A,,Clear,270,2013-01-09 03:54:00
11:54 PM,35.6,24.8,65,30.32,10.0,West,10.4,-,N/A,,Clear,270,2013-01-09 04:54:00